This demonstration page uses our WeatherBlox Daily Observations layout. Learn more.

36.17497, -115.13722

Hourly Observations for February 16, 2015

Temp ( °F °C ) Dew Point ( °F °C ) Humidity (%) Winds ( mph kmh ) Pressure ( in mb ) Visibility ( mi km ) Precip ( " mm )
12:53 am 00:53 Clear 54 12.2 25 -3.9 33 33 NW 5 7 30.04 1017 10 16.0934 0 0
1:53 am 01:53 Clear 52 11.1 27 -2.8 38 38 NNW 5 7 30.03 1017 10 16.0934 0 0
2:53 am 02:53 Clear 54 12.2 24 -4.4 31 31 WNW 7 11 30.01 1016 10 16.0934 0 0
3:53 am 03:53 Clear 52 11.1 23 -5 32 32 WNW 8 13 30.01 1016 10 16.0934 0 0
4:53 am 04:53 Clear 49 9.4 24 -4.4 38 38 WSW 3 6 30 1016 10 16.0934 0 0
5:53 am 05:53 Clear 48 8.9 24 -4.4 39 39 NW 3 6 30.01 1016 10 16.0934 0 0
6:53 am 06:53 Sunny 48 8.9 22 -5.6 36 36 NNW 3 6 30.02 1017 10 16.0934 0 0
7:53 am 07:53 Sunny 53 11.7 24 -4.4 32 32 NNW 6 9 30.02 1017 10 16.0934 0 0
8:53 am 08:53 Sunny 59 15 17 -8.3 19 19 VRB 3 6 30.03 1017 10 16.0934 0 0
9:53 am 09:53 Sunny 65 18.3 11 -11.7 12 12 NNW 7 11 30.03 1017 10 16.0934 0 0
10:53 am 10:53 Sunny 67 19.4 10 -12.2 11 11 Calm 30.01 1016 10 16.0934 0 0
11:53 am 11:53 Sunny 69 20.6 9 -12.8 9 9 SSE 6 9 29.99 1016 10 16.0934 0 0
12:53 pm 12:53 Sunny 70 21.1 10 -12.2 10 10 ESE 3 6 29.96 1014 10 16.0934 0 0
1:53 pm 13:53 Sunny 72 22.2 11 -11.7 9 9 SSE 6 9 29.92 1013 10 16.0934 0 0
2:53 pm 14:53 Sunny 73 22.8 8 -13.3 8 8 ESE 13 20 29.92 1013 10 16.0934 0 0
3:53 pm 15:53 Sunny 73 22.8 6 -14.4 7 7 ESE 13 20 29.93 1014 10 16.0934 0 0
4:53 pm 16:53 Sunny 72 22.2 11 -11.7 9 9 S 8 13 29.95 1014 10 16.0934 0 0
5:53 pm 17:53 Clear 69 20.6 14 -10 12 12 E 6 9 29.98 1015 10 16.0934 0 0
6:53 pm 18:53 Clear 65 18.3 12 -11.1 13 13 E 9 15 30.02 1017 10 16.0934 0 0
7:53 pm 19:53 Clear 64 17.8 11 -11.7 12 12 E 12 19 30.04 1017 10 16.0934 0 0
8:53 pm 20:53 Clear 62 16.7 8 -13.3 12 12 E 12 19 30.06 1018 10 16.0934 0 0
9:53 pm 21:53 Clear 59 15 6 -14.4 12 12 E 13 20 30.07 1018 10 16.0934 0 0
10:53 pm 22:53 Clear 58 14.4 6 -14.4 12 12 SSE 8 13 30.1 1019 10 16.0934 0 0
11:53 pm 23:53 Clear 56 13.3 7 -13.9 14 14 SW 8 13 30.13 1020 10 16.0934 0 0

Powered by AerisWeather